NOAA 16 DEB, 41097

Orbit data source: Space-Track

NOAA 16 DEB, 41097 is space debris in SSO originally from a launch on Thu, 21 Sep 2000 UTC launched from the Air Force Western Test Range (AFWTR). Debris objects in space refer to the collection of defunct objects orbiting the Earth. Examples of debris include non-operational satellites, rocket bodies, and fragments generated from explosions, collisions, or faulty payload assembly.

Loading next visibility...
Identifier
41097, 2000-055BG
Orbit
SSO
Country
Flag of USUS
Related business
Manufacturer
Unknown
Mission
Spacecraft
Bus & Motor
Unknown
Mass
Unknown
Launch date (UTC)
2000-09-21 (25 years ago)
Launch vehicle
Unknown
Launch site
Air Force Western Test Range (AFWTR)
Object type
Payload
Rocket body
Debris
Shape & HBR
Unknown shape, 0.1 m
Radar Cross Section
Small (<0.1 m²)

Expand to show TLE details & history
Last TLE update: 4 days ago

TLE from 4 days ago
0 NOAA 16 DEB
1 41097U 00055BG  26034.66063335  .00002118  00000-0  13977-2 0  9999
2 41097  98.9102 358.3754 0087723 172.7117 187.5346 14.00890132517331
Epoch: 2026-02-03T15:51Z
TLE epoch observation values (Epoch: 2026-02-03T15:51:18.721Z)
Latitude
-0.00005°
Longitude
-13.29097°
Altitude
956.832 km
Speed
7.341 km/s
True Right ascension
23h 53m 30s
True Declination
0° 00' 00"
Sunlit
Object was in daylight at epoch
Visualization orbit readout
Latitude
Unknown
Longitude
Unknown
Altitude
Unknown
Speed
Unknown
Apparent Right ascension
Unknown
Apparent Declination
Unknown
Sunlit
N/A
Visualization observer readout
Local Sidereal Time
10:55:41
Azimuth
Unknown
Elevation
Unknown
Doppler factor
Unknown
Orbital elements
Apogee altitude
951.648 km
Perigee altitude
824.168 km
Semi-major axis
7,266.045 km
Eccentricity
0.00877
Inclination
98.9102°
RAAN
358.3754°
Arg. of periapsis
172.7117°
True anomaly
187.40421°
Mean anomaly
187.5346°
Eccentric anomaly
187.46926°
Mean motion
3.50426 °/min
Orbital period
102.73 mins
BSTAR
0.0013977
Loading maneuver chart data...
Computing Atmospheric mass density...
Loading historical data...
Loading historical data...
Loading historical data...
Loading historical data...
Loading historical data...
Loading historical data...
Loading historical data...

Documentation

Showing up to 5 results
|